Regional Weather Roundup
Issued by NWS Charleston, SC

Current Version | Previous Version | Text Only | Print | Product List | Glossary Off
Versions: 1 2 3 4 5 6 7 8 9 10 11 12 13 14 15 16 17 18 19 20 21 22 23 24 25 26 27 28 29 30 31 32 33 34 35 36 37 38 39 40 41 42 43 44 45 46 47 48 49 50
000 ASUS42 KCHS 231027 RWRCHS REGIONAL WEATHER ROUNDUP NATIONAL WEATHER SERVICE CHARLESTON SC 600 AM EDT WED AUG 23 2017 NOTE: "FAIR" INDICATES FEW OR NO CLOUDS BELOW 12,000 FEET WITH NO SIGNIFICANT WEATHER AND/OR OBSTRUCTIONS TO VISIBILITY. NOT ALL STATIONS ARE QUALITY CONTROLLED. USE DATA WITH CAUTION... ESPECIALLY DEWPOINT OBSERVATIONS. SCZ027-030-031-034>040-042>050-231100- ...SOUTHEAST SOUTH CAROLINA... CITY SKY/WX TMP DP RH WIND PRES REMARKS N CHARLESTON PTCLDY 77 76 96 W5 29.95R WATERFRONT PRK N/A 80 77 90 VRB2 29.78S JOHNS ISLAND FAIR 79 77 94 CALM 29.95S PINOPOLIS N/A 79 77 94 SW7 29.87S MONCKS CORNER FAIR 75 73 94 SW6 29.95S SUMMERVILLE FAIR 73 73 100 CALM 29.96S BEAUFORT MCAS CLEAR 78 77 96 SW6 29.96R BEAUFORT ARPT FAIR 79 75 89 SW7 29.96R HILTON HEAD IS NOT AVBL WALTERBORO SUNNY 73 73 100 W3 29.96S ALLENDALE NOT AVBL ...SOUTHERN MIDLANDS AND PEE DEE... CITY SKY/WX TMP DP RH WIND PRES REMARKS GEORGETOWN FAIR 75 73 94 SW6 29.95S KINGSTREE FAIR 73 72 94 CALM 29.94R ORANGEBURG CLEAR 73 72 96 S6 29.94S BARNWELL FAIR 75 75 100 CALM 29.95S AIKEN FAIR 72 72 100 SW3 29.98S MANNING FAIR 75 70 83 W5 29.94S COLUMBIA CLEAR 76 72 87 CALM 29.92S SUMTER CLEAR 75 73 92 SW8 29.91R FLORENCE MOCLDY 75 75 100 SW7 29.92S MYRTLE BEACH MOCLDY N/A N/A N/A W6 29.95R N MYRTLE BEACH CLOUDY 78 75 90 SW6 29.94R $$ GAZ063-065-086>088-099>101-113>116-118-119-134>141-150-231100- ...SOUTHEAST GEORGIA... CITY SKY/WX TMP DP RH WIND PRES REMARKS SAVANNAH ARPT PTCLDY 77 75 93 SW8 29.96S HUNTER AAF PTCLDY 77 75 93 SW6 29.94S FORT STEWART CLEAR 76 73 91 S3 29.94S STATESBORO CLEAR 76 74 94 CALM 29.96S SYLVANIA N/A 73 73 100 CALM 29.96S CLAXTON FAIR 74 73 99 CALM 29.96S FOG ...CSRA...CENTRAL AND FAR SOUTHEAST GEORGIA... CITY SKY/WX TMP DP RH WIND PRES REMARKS THOMSON CLEAR 73 72 97 CALM 30.00S AUGUSTA-BUSH CLEAR 75 72 90 CALM 29.93S AUGUSTA-DANIEL CLEAR 76 71 85 SW3 29.95S SWAINSBORO FAIR 73 73 100 CALM 29.97R VIDALIA CLEAR 75 73 94 CALM 29.97R EASTMAN FAIR 75 75 100 CALM 29.99S HAZLEHURST FAIR 76 74 92 CALM 29.96S ALMA CLEAR 74 72 93 CALM 29.97S WAYCROSS CLEAR 75 72 90 SW3 29.98R JESUP FAIR 73 70 88 CALM 29.97S FOG BAXLEY FAIR 72 72 100 CALM 29.97R BRUNSWICK PTCLDY 77 72 83 SW5 29.98S SAINT SIMONS CLEAR 79 76 90 W8 29.97S $$ SCZ027-028-034-036>038-045-046-048>050-GAZ119-141-231100- ...LAKE AND SUPPLEMENTAL COASTAL OBSERVATIONS... STATION/POSITION TIME TEMP WIND PRES WAVE SWELL AIR SEA DIR/SP/G HT/PER HT/PER/DIR (UTC) (F) (DEG/KT/KT) (MB) (FT/S) (FT/S/D) WINYAH BAY 0945 78 260/ 6 1014.0S LAKE MURRAY 0950 80 250/ 7/ 9 1012.5R ACE BASIN NERRS 0945 78 240/ 2 1014.0S FORT PULASKI 1000 79 86 240/ 5/ 6 1014.9 SAPELO ISLAND 1000 79 230/ 9 1015.0 $$ ANZ835-935-AMZ111-154-330-350-352-354-370-450-454-472-231100- ...C-MAN AND BUOY OBSERVATIONS... STATION/POSITION TIME TEMP WIND PRES WAVE SWELL AIR SEA DIR/SP/G HT/PER HT/PER/DIR (UTC) (F) (DEG/KT/KT) (MB) (FT/S) (FT/S/D) BUOY 41004 1010 83 84 230/ 12/ 16 1013.8 BUOY 41008 0950 84 85 200/ 14/ 16 1014.1F 3/10 3/ 70/10 FOLLY BEACH CMAN 1000 80 270/ 3/ 5 1014.8R CAPERS NEARSHORE 1008 81 85 260/ 10/ 16 1013.9R FRIPP NEARSHORE 1008 83 260/ 14/ 17 1013.9R STATION/POSITION TIME TEMP WIND PRES WAVE SWELL AIR SEA DIR/SP/G HT/PER HT/PER/DIR (UTC) (F) (DEG/KT/KT) (MB) (FT/S) (FT/S/D) 5E ST. MARYS GA 1000 84 N/A 3/ 9 FRYING PAN BUOY 1010 83 84 230/ 16/ 17 1013.5 BUOY 41025 0950 83 85 250/ 17/ 19 1012.6F 4/10 3/140/10 CAPE LOOKOUT NC 1000 82 230/ 10/ 12 1012.8R BUOY 41002 0950 82 84 240/ 4/ 6 1015.0R 3/ 9 3/110/ 9 BUOY 41010 1010 84 85 150/ 8/ 10 1014.5 ST AUGUSTINE FL 1000 77 82 280/ 2/ 3 1014.9F $$

USA.gov is the U.S. government's official web portal to all federal, state and local government web resources and services.